Overview Statistics Trail Chart Weather Telemetry Raw packets
 

This is the latest recevied weather packets stored in our database for station/object DO1BDB-12. If no packets are shown the sender has not sent any weather packets the latest 10 day(s).

<< 317 318 319 320 321 322 323 >>
Time Temp. Humidity Pressure Rain* Wind** Luminosity Snow
1788167249 22.78° C 63% 101 hPa - - - -
1788167183 22.78° C 64% 101 hPa - - - -
1788167117 22.78° C 64% 101 hPa - - - -
1788167052 23.33° C 62% 101 hPa - - - -
1788167001 23.33° C 63% 101 hPa - - - -
1788166920 23.89° C 62% 101 hPa - - - -
1788166854 23.33° C 64% 101 hPa - - - -
1788166788 23.33° C 63% 101 hPa - - - -
1788166722 22.78° C 63% 101 hPa - - - -
1788166657 23.33° C 63% 101 hPa - - - -
1788166591 23.33° C 62% 101 hPa - - - -
1788166525 23.33° C 64% 101 hPa - - - -
1788166459 22.78° C 63% 101 hPa - - - -
1788166393 22.22° C 64% 101 hPa - - - -
1788166327 22.78° C 64% 101 hPa - - - -
1788166262 22.78° C 65% 101 hPa - - - -
1788166196 23.33° C 64% 101 hPa - - - -
1788166130 22.22° C 67% 101 hPa - - - -
1788166064 22.22° C 64% 101 hPa - - - -
1788165998 22.78° C 63% 101 hPa - - - -
1788165932 22.78° C 63% 101 hPa - - - -
1788165867 23.33° C 64% 101 hPa - - - -
1788165801 23.33° C 63% 101 hPa - - - -
1788165735 23.89° C 65% 101 hPa - - - -
1788165669 23.89° C 66% 101 hPa - - - -

* Rain since midnight (hover to see other rain measurements)
** Current wind speed in m/s (hover to see current wind gust speed)